Regional Weather Roundup
Issued by NWS

Home | Current Version | Previous Version | Graphics & Text | Print | Product List | Glossary On
Versions: 1 2 3 4 5 6 7 8 9 10 11 12 13 14 15 16 17 18 19 20 21 22 23 24 25 26 27 28 29 30 31 32 33 34 35 36 37 38 39 40 41 42 43 44 45 46 47 48 49 50
935
ASUS43 KMPX 250010
RWRMN
WEATHER ROUNDUP FOR MINNESOTA
NATIONAL WEATHER SERVICE TWIN CITIES/CHANHASSEN MN
700 PM CDT SUN SEP 24 2017


NOTE: "FAIR" INDICATES FEW OR NO CLOUDS BELOW 12,000 FEET WITH NO
SIGNIFICANT WEATHER AND/OR OBSTRUCTIONS TO VISIBILITY. N/A MEANS
CURRENT SKY AND/OR WEATHER CONDITIONS ARE NOT AVAILABLE.

MNZ060>063-068>070-250100-
   Twin Cities Metro

CITY           SKY/WX    TMP DP  RH WIND       PRES   REMARKS
TWIN CITIES    MOCLDY    86  61  42 S9        29.84S
6HR MIN TEMP:  86; 6HR MAX TEMP:  90; 6HR PCP: TRACE;

ST PAUL        PTCLDY    81  65  58 SE8       29.84S
CRYSTAL        PTCLDY    82  60  47 S7        29.82S
BLAINE         MOCLDY    84  63  48 SE10      29.84S
LAKEVILLE      CLOUDY    81  63  54 S6        29.86R
EDEN PRAIRIE   MOCLDY    76  65  68 W14G24    29.87R
6HR MIN TEMP:  79; 6HR MAX TEMP:  90; 6HR PCP: TRACE;

SOUTH ST PAUL  PTCLDY    84  61  46 S5        29.84S
LAKE ELMO      FAIR      81  63  54 E7        29.86F
$$
MNZ001>005-007-008-013>017-022>024-027-028-250100-
   Northwest Minnesota

CITY           SKY/WX    TMP DP  RH WIND       PRES   REMARKS
BEMIDJI        CLOUDY    60  58  94 W15G23    29.87R FOG
HALLOCK        CLOUDY    52  50  93 N16       29.91R
ROSEAU         CLOUDY    54  48  82 NW13      29.85F HAZE
THIEF RVR FALL LGT RAIN  52  52 100 NW12      29.90R FOG
CROOKSTON      CLOUDY    52  52 100 N14       29.93R
FOSSTON        CLOUDY    52  52 100 NW7       29.89F FOG
DETROIT LAKES  CLOUDY    54  52  94 NW13G18   29.90S FOG
MOORHEAD       CLOUDY    54  52  94 NW10      29.93S FOG
PARK RAPIDS    MOCLDY    59  56  89 NW9       29.87S
MAHNOMEN       CLOUDY    52  51  95 NW9       29.89R
$$
MNZ006-009>011-018-025>026-250100-
   North Central Minnesota

CITY           SKY/WX    TMP DP  RH WIND       PRES   REMARKS
BAUDETTE       LGT RAIN  58  58 100 NW9       29.82R
FLAG ISLAND    LGT RAIN  54  54 100 NW14      29.81R
INTL FALLS     CLOUDY    68  65  90 W7        29.79R
6HR MIN TEMP:  68; 6HR MAX TEMP:  74; 6HR PCP:  0.27;

WASKISH        CLOUDY    63  61  94 W12       29.83R
BIG FORK       RAIN      70  68  94 S5        29.81R
LONGVILLE      CLOUDY    68  66  94 SW3       29.84R
GRAND RAPIDS   CLOUDY    68  64  87 S6        29.85R
CRANE LAKE     TSTM      68  64  88 S6G23     29.82R
ORR            CLOUDY    66  63  88 S5        29.79F
WALKER         MOCLDY    67  63  87 W17G25    29.85R
$$
MNZ012-019>021-037-250100-
   Northeast Minnesota

CITY           SKY/WX    TMP DP  RH WIND       PRES   REMARKS
DULUTH         PTCLDY    66  66 100 SE6       29.86F
6HR MIN TEMP:  66; 6HR MAX TEMP:  79; 6HR PCP:  0.14;

ELY            PTCLDY    75  64  69 S9        29.83S
HIBBING        HVY RAIN  65  64  97 SE6       29.85R VSB 3/4
EVELETH        CLOUDY    65  65  98 S5        29.87R
DULUTH HARBOR  PTCLDY    64  64 100 E6        29.84F
GRAND MARAIS     N/A     64  62  93 E5        29.85F
$$
MNZ029>031-032-039>041-046>048-054>057-064-250100-
   West Central Minnesota

CITY           SKY/WX    TMP DP  RH WIND       PRES   REMARKS
FERGUS FALLS   CLOUDY    54  54 100 N12       29.91R
WHEATON        CLOUDY    55  52  88 W8        29.95R
ALEXANDRIA     CLOUDY    60  59  96 NW9       29.91R FOG
ELBOW LAKE     CLOUDY    55  55  97 W9        29.91R
WADENA         CLOUDY    61  59  94 W7        29.87F
GLENWOOD       CLOUDY    61  59  94 W15G24    29.91R
APPLETON       CLOUDY    63  55  77 NW9       29.91R
BENSON         CLOUDY    63  57  82 N9        29.92R
ORTONVILLE     CLOUDY    57  54  88 NW12      29.93R
MADISON        CLOUDY    64  57  77 NW8       29.92R
WILLMAR        CLOUDY    66  63  88 W8        29.91R
$$
MNZ033>034-036-042>043-049>051-058-059-250100-
   Central Minnesota

CITY           SKY/WX    TMP DP  RH WIND       PRES   REMARKS
ST CLOUD       LGT RAIN  70  67  90 SW6       29.88R
6HR MIN TEMP:  69; 6HR MAX TEMP:  85; 6HR PCP: TRACE;

SAUK CENTRE    CLOUDY    66  63  88 W10G22    29.89R
PAYNESVILLE    CLOUDY    69  67  93 SW7       29.90R
AITKIN         LGT RAIN  66  64  94 S7        29.84R
PINE RIVER     CLOUDY    64  63  94 SW3       29.89R
BRAINERD       CLOUDY    68  66  93 SW8       29.86R
STAPLES        CLOUDY    64  63  94 W14G21    29.88R
LITTLE FALLS   CLOUDY    66  64  94 CALM      29.87S
LITCHFIELD     CLOUDY    70  70 100 CALM      29.90F
BUFFALO        HVY RAIN  69  65  88 SW5       29.90R
MAPLE LAKE     MOCLDY    70  67  90 S3        29.90R
HUTCHINSON     MOCLDY    70  68  95 CALM      29.89F
$$
MNZ037-044-045-052-053-250100-
   East Central Minnesota

CITY           SKY/WX    TMP DP  RH WIND       PRES   REMARKS
PRINCETON      MOCLDY    73  66  78 SW12      29.89R
MORA           PTCLDY    70  64  83 W10       29.87R
RUSH CITY      PTCLDY    75  65  71 S5        29.84S
MOOSE LAKE     MOCLDY    70  66  88 CALM      29.83R
HINCKLEY       MOCLDY    77  68  73 CALM      29.84S
CLOQUET        PTCLDY    70  64  83 E6        29.85F
MCGREGOR       CLOUDY    68  64  88 S18G33    29.89R THUNDER
$$
MNZ071>073-080-081-089-090-097-098-250100-
   Southwest Minnesota

CITY           SKY/WX    TMP DP  RH WIND       PRES   REMARKS
MONTEVIDEO     PTCLDY    63  61  94 NW5       29.92R
GRANITE FALLS  CLOUDY    66  61  82 W7        29.93R
CANBY          CLOUDY    61  56  83 NW9       29.95R
MARSHALL       MOCLDY    63  57  82 NW10      29.94R
REDWOOD FALLS  MOCLDY    70  63  78 W9        29.89S
OLIVIA         PTCLDY    70  64  83 W7        29.90R
PIPESTONE      MOCLDY    61  57  88 NW3       29.95F
WORTHINGTON    CLOUDY    67  63  87 W7        29.94R
JACKSON        RAIN      70  64  83 CALM      29.92S
TRACY          PTCLDY    67  61  83 NW8       29.92S
SLAYTON        CLOUDY    66  55  66 NW7       29.93S
$$
MNZ065>067-074>077-082>085-091>093-250100-
   South Central Minnesota

CITY           SKY/WX    TMP DP  RH WIND       PRES   REMARKS
MANKATO        LGT RAIN  76  65  68 W15       29.90R
NEW ULM        MOCLDY    70  63  78 SW3       29.90R
ST JAMES       MOCLDY    73  66  78 CALM      29.91S
FAIRMONT       MOCLDY    72  68  87 W12       29.92R
FARIBAULT      CLOUDY    82  61  47 S5        29.88R
OWATONNA       CLOUDY    82  63  51 S6        29.89R
WASECA         CLEAR     77  59  53 S6        29.90R
ALBERT LEA     CLEAR     84  61  45 S7        29.89S
$$
MNZ078>079-086>088-094>096-250100-
   Southeast Minnesota

CITY           SKY/WX    TMP DP  RH WIND       PRES   REMARKS
ROCHESTER      PTCLDY    80  62  54 S7        29.92S
6HR MIN TEMP:  80; 6HR MAX TEMP:  89;

RED WING       PTCLDY    82  59  44 SE6       29.86S
STANTON        CLOUDY    83  61  48 S7        29.85S
DODGE CENTER   PTCLDY    79  61  53 S7        29.91S
WINONA         CLEAR     81  63  54 CALM      29.91S
AUSTIN         CLEAR     81  61  50 S5        29.91R
PRESTON        CLEAR     79  60  52 S7        29.93S
$$
ABBREVIATIONS USED IN REMARKS
   TC - TEMPERATURES IN CELSIUS
  WCI - WIND CHILL INDEX
   HX - HEAT INDEX
  VSB - VISIBILITY
$$




USA.gov is the U.S. government's official web portal to all federal, state and local government web resources and services.